User: anonymous
Location: Rancho Del Sol Observatory
(38.7214°N, 120.6350°W)
Time: 07:00:26
(UTC-07:00)
Language:

Cosmos 2221 Rocket - Orbit

View from above orbital plane
View from above orbital plane
View from above satellite
View from above satellite

Ground track
Ground track

The orbit data is extracted from the following two-line orbital elements,

1 22237U 92080B   14261.71291590  .00000296  00000-0  37875-4 0  4326
2 22237 082.5138 330.0676 0018843 239.6499 274.4319 14.77900913175347
Epoch (UTC): 18 September 2014 17:06:35
Eccentricity: 0.0018843
inclination: 82.5138°
perigee height: 623 km
apogee height: 649 km
right ascension of ascending node: 330.0676°
argument of perigee: 239.6499°
revolutions per day: 14.77900913
mean anomaly at epoch: 274.4319°
orbit number at epoch: 17534

The dashed part of the orbit path shows where the satellite is in the earth's shadow,  

DLR